Погода в Верколе

Россия / Архангельская область     63°47′53″N   45°08′03″E
темп.,
°C
ветер,
м/с
пор.,
м/с
влажн.,
%
обл.,
%
осадки,
мм/ч
давл.,
гПа
погр.,
м
24 января, пн
пн2400:00−13ю41291100 0.0 1022328
03:00−11ююз41393100 0.2 1022440
06:00−9ююз4129199 0.2 1020493
09:00−7ююз51391100 0.3 1018557
12:00−6юз51490100 0.1 1016670
15:00−4юз51491100 0.3 1015660
18:00−3юз61592100 0.1 1013795
21:00−2юз61591100 0.1 1011945
25 января, вт
вт2500:00−2юз61491100 0.1 10091132
03:00−2юз51392100 0.5 1008902
06:00−2юз51392100 0.5 1007820
09:00−3юз51393100 1.0 1006719
12:00−4юз51193100 0.5 1006658
15:00−4ююз41095100 1.3 1006540
18:00−5ююз3996100 0.9 1006442
21:00−5ююз3796100 1.8 1007332
26 января, ср
ср2600:00−6юз2597100 0.4 1008158
03:00−6сз3696100 0.9 1009282
06:00−15зсз259849 0.0 101089
09:00−22з1110078 0.0 10129
12:00−15зсз1398100 0.1 101295
15:00−16юз1110093 0.1 10139
18:00−19юз1110094 0.0 101410
21:00−21ююз1110060 0.0 101410
27 января, чт
чт2700:00−22ю1110037 0.0 101410
03:00−22ююв1110039 0.0 101412
06:00−22ююв1110043 0.0 101410
09:00−22ююв1210058 0.0 101428
12:00−15ю14955 0.0 1013106
15:00−16юв229845 0.0 101327
18:00−20юв2210029 0.0 101340
21:00−20юв249915 0.0 101352
28 января, пт
пт2800:00−21вюв249948 0.0 101346
03:00−21юв249992 0.0 101370
06:00−19юв2798100 0.0 1012119
09:00−18юв3897100 0.0 1012169
12:00−15юв3894100 0.0 1012224
15:00−15юв3894100 0.0 1011224
18:00−16юв3895100 0.0 1011213
21:00−16юв3795100 0.0 1011200